This is the latest recevied weather packets stored in our database for station/object OK1LPD-6. If no packets are shown the sender has not sent any weather packets the latest 10 day(s).
| Time | Temp. | Humidity | Pressure | Rain* | Wind** | Luminosity | Snow |
|---|---|---|---|---|---|---|---|
| 1778073929 | 23.33° C | 41% | 1005.1 hPa | 0 mm | - | - | - |
| 1778073350 | 23.89° C | 40% | 1005.1 hPa | 0 mm | - | - | - |
| 1778072729 | 24.44° C | 39% | 1005.2 hPa | 0 mm | - | - | - |
| 1778072130 | 25° C | 37% | 1005.3 hPa | 0 mm | - | - | - |
| 1778071548 | 25° C | 40% | 1005.6 hPa | 0 mm | - | - | - |
| 1778070930 | 22.78° C | 41% | 1005.6 hPa | 0 mm | - | - | - |
| 1778070330 | 23.89° C | 41% | 1005.8 hPa | 0 mm | - | - | - |
| 1778069750 | 24.44° C | 41% | 1006 hPa | 0 mm | - | - | - |
| 1778069130 | 22.78° C | 43% | 1006.1 hPa | 0 mm | - | - | - |
| 1778068529 | 23.33° C | 43% | 1006.2 hPa | 0 mm | - | - | - |
| 1778067949 | 23.33° C | 43% | 1006.2 hPa | 0 mm | - | - | - |
| 1778067329 | 24.44° C | 44% | 1006.1 hPa | 0 mm | - | - | - |
| 1778066730 | 23.33° C | 43% | 1006.2 hPa | 0 mm | - | - | - |
| 1778066151 | 23.89° C | 44% | 1006.4 hPa | 0 mm | - | - | - |
| 1778065530 | 23.33° C | 45% | 1006.5 hPa | 0 mm | - | - | - |
| 1778064931 | 23.33° C | 45% | 1006.5 hPa | 0 mm | - | - | - |
| 1778064349 | 22.78° C | 46% | 1006.7 hPa | 0 mm | - | - | - |
| 1778063731 | 22.22° C | 50% | 1006.7 hPa | 0 mm | - | - | - |
| 1778063131 | 22.22° C | 50% | 1006.9 hPa | 0 mm | - | - | - |
| 1778062552 | 22.22° C | 50% | 1006.7 hPa | 0 mm | - | - | - |
| 1778061932 | 21.11° C | 51% | 1006.9 hPa | 0 mm | - | - | - |
| 1778061331 | 21.11° C | 51% | 1007 hPa | 0 mm | - | - | - |
| 1778060750 | 21.11° C | 50% | 1007 hPa | 0 mm | - | - | - |
| 1778060131 | 21.67° C | 52% | 1007 hPa | 0 mm | - | - | - |
| 1778059531 | 20.56° C | 53% | 1007 hPa | 0 mm | - | - | - |
* Rain latest hour (hover to see other rain measurements)
** Current wind speed in m/s (hover to see current wind gust speed)